Погода в Брагине

Россия / Орловская область     53°19′51″N   36°19′20″E
темп.,
°C
ветер,
м/с
пор.,
м/с
влажн.,
%
обл.,
%
осадки,
мм/ч
давл.,
гПа
погр.,
м
12 апреля, пн
пн1200:00+7всв3668100 0.0 1031109
03:00+5всв31072100 0.0 1031199
06:00+4всв51368100 0.0 1030302
09:00+7в61364100 0.1 1029509
12:00+11в5771100 0.1 1028565
15:00+14в686670 0.1 1026719
18:00+14в5973100 0.0 1025418
21:00+10в41389100 0.0 1025212
13 апреля, вт
вт1300:00+10вюв413795 0.0 1024232
03:00+9юв4108297 0.0 1024163
06:00+8юв388696 0.0 1024124
09:00+12юв4964100 0.0 1024280
12:00+17ююв694955 0.0 1023892
15:00+19ююв784128 0.0 10221687
18:00+18юв484651 0.0 1021257
21:00+13вюв412585 0.0 1022196
14 апреля, ср
ср1400:00+10ююв357095 0.0 102166
03:00+10юв367347 0.0 102191
06:00+9юв377758 0.0 1021110
09:00+13вюв45636 0.0 1020264
12:00+17юв4644100 0.0 1019941
15:00+19ююв5738100 0.0 10171703
18:00+16юв3751100 0.0 1016174
21:00+12з3576100 0.0 1017111
15 апреля, чт
чт1500:00+10юз2280100 0.0 101727
03:00+10юв1175100 0.0 101712
06:00+9всв118192 0.0 101613
09:00+13ююв365759 0.0 1016444
12:00+17ююв344364 0.0 10151837
15:00+17ююв4546100 0.0 1014622
18:00+17вюв2250100 0.0 101449
21:00+13с3563100 0.1 101473
16 апреля, пт
пт1600:00+12св3767100 0.0 1013160
03:00+11ссв4969100 0.0 1013207
06:00+10ссв6117496 0.0 1013307
09:00+12св7117399 0.0 1014660
12:00+14св8967100 0.1 10141180
15:00+11св91179100 1.3 1015980
18:00+7св101685100 0.1 1017778
21:00+5св111886100 0.3 1019946